[[{"header":{"parameterUnit":"m.s-1","parameterCategory":1,"la1":30.2992,"la2":30.254,"lo1":-89.0895,"lo2":-89.0443,"dy":0.0025,"dx":0.0025,"nx":19,"ny":19,"refTime":"2026-05-08T03:00:00:Z","depth":0,"parameterNumber":2,"parameterNumberName":"U-component_of_WINDS"},"data":[0,0,0,-5.3944,-5.3945,-5.3963,-5.3963,-5.4028,-5.4029,0,0,0,0,0,0,0,0,0,0,0,-5.3962,-5.3963,-5.3944,-5.3945,-5.3963,-5.3963,-5.4028,-5.4029,0,0,0,0,0,0,0,0,0,0,0,-5.3962,-5.3963,-5.3965,-5.3945,-5.3963,-5.3963,-5.4027,-5.3999,0,0,0,0,0,0,0,0,0,0,-5.3974,-5.4014,-5.3963,-5.3965,-5.3945,-5.3963,-5.3963,-5.3997,-5.4001,-5.4037,0,-5.4074,0,-5.4053,-5.4036,-5.4036,0,0,0,-5.3927,-5.4011,-5.3995,-5.3965,-5.3946,-5.3963,-5.395,-5.3999,-5.4003,-5.4042,-5.4075,-5.4076,-5.4054,-5.4036,-5.4037,-5.4304,-5.4306,0,0,-5.3926,-5.3978,-5.3992,-5.3999,-5.3997,-5.3949,-5.3951,-5.4001,-5.404,-5.4075,-5.4077,-5.4055,-5.4037,-5.4038,-5.4302,-5.4305,0,0,0,-5.3935,-5.3979,-5.3959,-5.3997,-5.3997,-5.395,-5.3952,-5.4038,-5.4027,-5.4077,-5.4056,-5.4038,-5.4039,-5.43,-5.4303,-5.4459,0,0,0,-5.3933,-5.3983,-5.396,-5.3992,-5.3997,-5.4018,-5.3989,-5.4024,-5.4028,-5.4056,-5.4038,-5.404,-5.4298,-5.4302,-5.4449,-5.4524,0,0,0,-5.3953,-5.3985,-5.3996,-5.3995,-5.4005,-5.4015,-5.4007,-5.4023,-5.4016,-5.4036,-5.404,-5.4296,-5.4301,-5.4441,-5.451,-5.4611,0,0,0,-5.3988,-5.4133,-5.4,-5.4153,-5.4005,-5.4111,-5.4006,-5.4082,-5.4118,-5.4038,-5.4298,-5.4303,-5.4438,-5.4501,-5.4603,-5.4707,-5.4755,0,0,-5.42,-5.416,-5.4246,-5.4127,-5.4271,-5.4104,-5.427,-5.4253,-5.4206,-5.4275,-5.428,-5.4452,-5.4509,-5.4609,-5.5003,-5.5042,0,0,0,-5.4331,-5.4394,-5.442,-5.4457,-5.4448,-5.4447,-5.4399,-5.4394,-5.4449,-5.4252,-5.4514,-5.4546,-5.4603,-5.465,-5.4683,-5.473,-5.4327,-5.4326,-5.4326,-5.4705,-5.464,-5.4778,-5.4716,-5.4754,-5.4704,-5.4729,-5.4713,-5.4633,-5.4697,-5.4717,-5.4964,-5.5022,-5.5046,-5.5096,-5.4766,-5.4766,-5.4767,-5.4767,-5.5011,-5.509,-5.4984,-5.5081,-5.5011,-5.5092,-5.5051,-5.4993,-5.5059,-5.4943,-5.4989,-5.4869,-5.509,-5.513,-5.4778,-5.4776,-5.4775,-5.4774,-5.4773,-5.525,-5.5276,-5.5267,-5.5317,-5.5362,-5.5293,-5.5363,-5.5296,-5.5233,-5.528,-5.5295,-5.5293,-5.5283,-5.5292,-5.5293,-5.5293,-5.5294,-5.5295,-5.5295,-5.5502,-5.5487,-5.5553,-5.5558,-5.5575,-5.5589,-5.5542,-5.5557,-5.5557,-5.5503,-5.5502,-5.542,-5.5124,-5.5052,-5.5308,-5.5306,-5.5304,-5.5303,-5.5302,-5.5838,-5.5752,-5.5855,-5.5872,-5.5874,-5.5926,-5.584,-5.5877,-5.5879,-5.5916,-5.5824,-5.5615,-5.5569,-5.5543,-5.5483,-5.5836,-5.5836,-5.5836,-5.5836,-5.6041,-5.6012,-5.6104,-5.6136,-5.616,-5.6094,-5.6215,-5.6182,-5.6134,-5.6132,-5.6071,-5.5986,-5.5962,-5.593,-5.5895,-5.5839,-5.6274,-5.6274,-5.6275,-5.6246,-5.6216,-5.6331,-5.6283,-5.6281,-5.6281,-5.6393,-5.6436,-5.6363,-5.6291,-5.613,-5.6112,-5.5972,-5.593,-5.5855,-5.5802,-5.5697,0,0]},{"header":{"parameterUnit":"m.s-1","parameterCategory":1,"la1":30.2992,"la2":30.254,"lo1":-89.0895,"lo2":-89.0443,"dy":0.0025,"dx":0.0025,"nx":19,"ny":19,"refTime":"2026-05-08T03:00:00:Z","depth":0,"parameterNumber":3,"parameterNumberName":"V-component_of_WINDS"},"data":[0,0,0,0.8194,0.8193,0.8149,0.8149,0.808,0.8079,0,0,0,0,0,0,0,0,0,0,0,0.82,0.8199,0.8194,0.8192,0.8149,0.8149,0.808,0.8079,0,0,0,0,0,0,0,0,0,0,0,0.82,0.82,0.8199,0.8192,0.8149,0.8149,0.808,0.8117,0,0,0,0,0,0,0,0,0,0,0.8161,0.8162,0.82,0.8199,0.8192,0.8149,0.8149,0.8119,0.8115,0.8094,0,0.8076,0,0.8077,0.8074,0.8074,0,0,0,0.8196,0.8165,0.816,0.8199,0.8191,0.8149,0.817,0.8117,0.8112,0.8089,0.8075,0.8073,0.8076,0.8073,0.8073,0.7946,0.7945,0,0,0.8199,0.8188,0.8163,0.8156,0.8164,0.8171,0.8168,0.8114,0.8098,0.8075,0.8072,0.8074,0.8073,0.8072,0.7947,0.7946,0,0,0,0.8203,0.819,0.8186,0.8159,0.8152,0.817,0.8167,0.81,0.81,0.8071,0.8074,0.8072,0.8071,0.7948,0.7946,0.7898,0,0,0,0.8205,0.8192,0.8186,0.8179,0.8153,0.8126,0.8154,0.8104,0.8098,0.8074,0.8072,0.8071,0.7949,0.7947,0.7901,0.7876,0,0,0,0.8205,0.8192,0.8184,0.8179,0.816,0.8127,0.8124,0.8103,0.8099,0.8073,0.807,0.7949,0.7947,0.7904,0.788,0.7839,0,0,0,0.8202,0.814,0.8183,0.8115,0.8161,0.8099,0.8125,0.8078,0.805,0.8072,0.7948,0.7947,0.7905,0.7883,0.7842,0.7801,0.7784,0,0,0.8118,0.8129,0.8091,0.8128,0.8056,0.8106,0.8026,0.8009,0.8015,0.7968,0.7965,0.79,0.7881,0.784,0.7692,0.7678,0,0,0,0.806,0.8032,0.8015,0.7989,0.7977,0.7964,0.7961,0.7955,0.7916,0.799,0.7875,0.7864,0.784,0.7821,0.7809,0.7789,0.7938,0.7938,0.7938,0.7924,0.7938,0.7875,0.7883,0.7858,0.7857,0.7837,0.7828,0.7848,0.782,0.7806,0.7715,0.7692,0.7684,0.7662,0.7787,0.7787,0.7786,0.7786,0.7802,0.7763,0.7794,0.7743,0.7757,0.7714,0.7711,0.7727,0.7687,0.7727,0.7706,0.7747,0.7668,0.765,0.7783,0.7783,0.7784,0.7784,0.7784,0.7713,0.7697,0.7693,0.7658,0.7629,0.764,0.7602,0.7616,0.7629,0.7609,0.7595,0.7596,0.7597,0.7602,0.7601,0.7601,0.7601,0.7601,0.76,0.7621,0.7619,0.7586,0.7569,0.7555,0.7538,0.7538,0.7524,0.7511,0.7525,0.7525,0.7546,0.7659,0.7686,0.7595,0.7596,0.7597,0.7597,0.7598,0.7489,0.7522,0.7471,0.7457,0.7439,0.741,0.743,0.74,0.739,0.7371,0.7398,0.7479,0.7491,0.7501,0.7523,0.7396,0.7396,0.7396,0.7396,0.7413,0.7422,0.7374,0.7351,0.733,0.7344,0.7284,0.7284,0.7288,0.7282,0.7303,0.7335,0.7344,0.7351,0.7363,0.7384,0.7225,0.7225,0.7224,0.7332,0.734,0.7287,0.7294,0.7282,0.727,0.7215,0.7186,0.7197,0.7218,0.7278,0.7285,0.7337,0.7353,0.7372,0.7392,0.7431,0,0]}]]